Location: Limerick
(52.6800°N, 8.6400°W)
Time: 01:05:50
(UTC+01:00)

Daily predictions for brighter satellites

Satellite Brightness Start Highest point End
(mag) Time Altitude Azimuth Time Altitude Azimuth Time Altitude Azimuth
Cosmos 1544 3.9 00:00:13 10° NNW 00:03:41 44° W 00:06:11 17° SSW
Cosmos 158 Rocket 4.1 00:00:02 10° SSW 00:05:23 90° E 00:10:50 10° NNE
CZ-4 R/B 3.9 00:01:22 10° NNE 00:06:26 83° ESE 00:10:40 15° SSW
Cosmos 2322 Rocket 2.2 00:04:16 10° NNW 00:10:00 78° WSW 00:14:03 20° SSE
CZ-4B R/B 3.5 00:06:08 10° NNE 00:11:14 78° ESE 00:15:22 16° S
Cosmos 1605 Rocket 4.2 00:09:41 10° N 00:15:43 60° ENE 00:20:07 19° SSE
Cosmos 1378 4.5 00:17:13 20° SE 00:18:45 26° E 00:21:55 10° NNE
Cosmos 494 Rocket 4.3 00:17:02 21° S 00:20:15 48° ESE 00:25:14 10° NE
Cosmos 1535 Rocket 4.5 00:14:47 10° NNW 00:20:55 80° W 00:25:25 19° S
Cosmos 1953 2.9 00:17:20 10° NNW 00:21:19 51° W 00:23:55 20° SSW
H-2A R/B 4.1 00:18:17 10° SW 00:21:50 19° W 00:25:27 10° NW
Cosmos 1953 Rocket 3.5 00:23:06 21° S 00:26:07 86° E 00:30:35 10° NNE
Cosmos 1825 Rocket 3.7 00:23:13 18° SSW 00:26:26 72° WNW 00:30:47 10° N
CZ-2C R/B 3.5 00:21:31 10° NNE 00:26:44 37° E 00:29:56 20° SSE
CZ-4B R/B 3.9 00:26:59 10° E 00:28:27 13° ENE 00:29:56 10° NNE
Cosmos 2333 Rocket 3.9 00:30:12 10° NNW 00:35:11 29° NE 00:40:07 10° E
ALOS 2 2.7 00:35:43 24° SSE 00:38:20 68° ENE 00:42:43 10° N
Cosmos 2219 Rocket 3.7 00:34:10 10° NNW 00:39:19 33° NE 00:44:27 10° ESE
Cosmos 2082 Rocket 3.7 00:35:51 10° WSW 00:41:06 38° NW 00:46:22 10° NNE
Terra 3.8 00:38:05 10° SW 00:41:37 20° W 00:45:11 10° NW
Cosmos 1470 3.3 00:40:09 10° NNW 00:44:02 50° W 00:46:11 24° SSW
Cosmos-2242 3.2 00:40:03 10° NNW 00:44:20 64° W 00:46:42 25° S
USA 267 3.9 00:38:46 10° ENE 00:44:39 34° SE 00:48:21 20° S
Lacrosse 5 rocket 2.3 00:42:01 10° WNW 00:46:18 37° SW 00:48:11 26° S
Cosmos 2084 Rocket 4.3 00:54:07 27° SSE 00:54:55 29° SE 00:58:20 10° ENE
Cosmos 1707 2.6 00:54:00 28° S 00:55:56 90° ESE 00:59:51 10° N
Cosmos 1689 Rocket 4.2 00:54:40 14° ESE 00:56:25 21° ENE 00:58:50 10° NNE
Cosmos 1934 Rocket 4.5 00:52:22 10° NNW 00:58:34 55° W 01:02:59 19° SSW
Cosmos 2237 Rocket 3.9 00:55:10 10° NNW 01:00:07 30° NE 01:05:03 10° ESE
SL-16 R/B 3.1 00:57:35 10° NW 01:02:41 35° WSW 01:05:51 20° SSW
Cosmos 2221 3.2 01:01:48 10° N 01:05:57 46° ENE 01:08:29 21° SE
SME Rocket 4.1 01:05:10 21° SSW 01:07:43 36° WSW 01:11:23 10° NW
Cosmos 1992 Rocket 4.0 01:04:38 10° NNW 01:09:54 80° ENE 01:13:21 22° SSE
Lacrosse 5 2.1 01:07:16 20° SSW 01:10:28 49° SE 01:15:22 10° ENE
SeaSat 1 2.7 01:11:15 25° S 01:13:57 56° WSW 01:18:51 10° NW
CZ-2C R/B 3.5 01:10:54 24° S 01:14:18 62° W 01:20:02 10° NNW
Cosmos 1802 Rocket 4.3 01:09:16 10° N 01:15:33 60° ENE 01:20:00 19° SSE
Cosmos 1726 4.4 01:14:21 10° NNE 01:17:03 18° ENE 01:19:43 10° ESE
Cosmos 2100 Rocket 4.0 01:12:17 10° N 01:18:28 76° ENE 01:22:39 22° SSE
USA 234 3.2 01:16:21 10° ESE 01:22:55 78° SSW 01:29:30 10° WNW
ATLAS CENTAUR R/B 3.3 01:24:07 10° W 01:25:36 12° WSW 01:25:58 12° WSW
Meteor 2-1 Rocket 4.3 01:21:06 10° NNW 01:27:02 80° W 01:30:47 24° S
ISS -3.7 01:24:14 10° W 01:27:27 51° SSW 01:28:36 33° SE
ATLAS 2AS CENTAUR R/B 3.1 01:20:51 10° NW 01:29:04 88° NE 01:36:47 10° SE
Cosmos 2322 3.9 01:23:37 10° NW 01:29:09 57° WSW 01:32:23 25° S
Cosmos 2251 Rocket 4.0 01:27:03 14° SW 01:31:34 59° WNW 01:36:55 10° NNE
Cosmos 2237 4.2 01:27:56 10° NW 01:33:37 68° WSW 01:37:10 23° SSE
Cosmos 1842 Rocket 4.3 01:31:11 10° NNW 01:35:28 45° W 01:37:44 24° SSW
Cosmos 2098 Rocket 4.4 01:32:59 10° NNW 01:37:07 36° W 01:40:18 19° SW
Cosmos 1184 Rocket 3.8 01:38:42 27° SE 01:39:45 35° E 01:42:50 10° NNE
Cosmos 2061 Rocket 4.0 01:33:44 10° N 01:39:59 89° E 01:44:12 22° S
Cosmos 2360 Rocket 2.8 01:35:37 10° NW 01:40:54 41° WSW 01:43:49 24° SSW
Cosmos 1833 4.2 01:37:35 23° SSW 01:41:13 75° ESE 01:46:56 10° NE
COSMOS 2428 2.7 01:42:13 10° NW 01:47:58 70° WSW 01:51:45 22° SSE
Cosmos 2219 3.9 01:45:25 22° SSE 01:48:24 39° ESE 01:53:35 10° NE
Geosat 4.4 01:47:26 10° NE 01:52:20 47° ESE 01:54:59 25° S
Cosmos 2322 Rocket 4.1 01:49:52 10° WNW 01:53:08 16° W 01:55:51 11° SW
Cosmos 2333 4.2 01:47:55 10° NW 01:53:40 70° WSW 01:57:30 21° SSE
ERBS 4.2 01:56:52 16° SE 01:56:52 16° SE 01:58:50 10° E
CZ-4B R/B 1.4 01:59:47 38° SSW 02:00:43 58° WSW 02:03:52 10° NNW
H-2A R/B 3.2 02:00:00 10° NNE 02:04:07 46° E 02:06:28 24° SSE
Intercosmos 25 4.1 02:02:34 10° NNW 02:05:30 30° W 02:06:30 25° SW
NOSS 0 Rocket 4.0 01:59:40 10° NNW 02:05:55 86° ENE 02:11:52 11° SSE
CZ-2C R/B 3.5 02:01:47 10° N 02:07:07 45° WNW 02:11:28 15° SW
CZ-4C R/B 4.1 02:06:42 25° SW 02:08:02 33° W 02:11:25 10° NNW
Cosmos 1340 Rocket 2.7 02:09:26 29° SSW 02:11:21 90° N 02:15:19 10° NNE
Cosmos 1725 Rocket 4.0 02:05:45 10° N 02:12:08 88° E 02:16:49 19° S
Cosmos 2228 Rocket 3.5 02:10:34 10° N 02:15:01 59° ENE 02:18:19 18° SSE
Cosmos 2173 Rocket 4.4 02:10:52 10° NNW 02:16:44 49° W 02:20:35 21° SSW
SL-08 R/B 4.5 02:12:59 10° NNW 02:19:05 74° W 02:23:21 21° S
Cosmos 2333 Rocket 2.2 02:14:20 10° NNW 02:20:05 78° WSW 02:24:47 15° SSE
Meteor 2-2 Rocket 4.3 02:15:23 10° NNW 02:21:04 80° ENE 02:25:26 17° SSE
Cosmos 2219 Rocket 2.3 02:18:03 10° NW 02:23:42 64° WSW 02:27:48 19° SSE
Cosmos 1908 3.9 02:20:08 10° NNW 02:23:53 43° W 02:25:38 26° SSW
Cosmos 1242 Rocket 2.5 02:22:07 10° NNW 02:25:40 71° W 02:27:21 29° S
Cosmos 1980 3.7 02:20:38 10° NNW 02:26:22 88° WSW 02:31:46 11° SSE
Cosmos 1356 Rocket 3.5 02:26:02 25° S 02:28:14 66° E 02:32:20 10° NNE
Cosmos 1689 Rocket 3.4 02:27:29 25° SW 02:28:15 28° W 02:31:01 10° NW
USA 267 3.2 02:21:41 10° ENE 02:28:15 83° SSE 02:34:50 10° WSW
Cosmos 2297 Rocket 3.7 02:25:31 12° SSE 02:29:22 24° ESE 02:33:50 10° NE
Cosmos 1626 4.4 02:31:26 10° SE 02:33:59 18° E 02:36:34 10° NE
Cosmos 2084 Rocket 3.9 02:30:37 12° WSW 02:34:14 53° NW 02:38:02 10° NE
Aureole 2 Rocket 2.8 02:30:30 10° NNW 02:34:30 84° ENE 02:37:49 16° SSE
Okean 3 Rocket 4.3 02:32:36 21° SW 02:35:23 47° WNW 02:39:49 10° N
Cosmos 1408 Rocket 3.5 02:36:01 24° SSW 02:38:35 83° WNW 02:42:56 10° N
Cosmos 1570 Rocket 4.5 02:36:15 10° NNW 02:41:36 64° ENE 02:46:55 10° SE
Meteor 2-10 4.0 02:36:55 10° NNW 02:42:03 89° ENE 02:46:15 16° SSE
Cosmos 2221 4.1 02:39:55 10° NW 02:43:16 23° W 02:45:20 16° SW
Cosmos 407 Rocket 3.5 02:40:45 22° SSW 02:44:10 80° ESE 02:49:21 10° NNE
PSLV R/B 3.9 02:41:32 17° SSE 02:44:35 80° ENE 02:48:40 10° NNW
Cosmos 2237 Rocket 2.2 02:39:05 10° NW 02:44:44 73° WSW 02:49:56 12° SSE
Cosmos 1500 Rocket 4.3 02:43:10 17° SSE 02:46:18 48° E 02:50:37 10° NNE
SL-16 R/B 2.7 02:41:16 10° NNW 02:46:57 63° NE 02:52:35 10° SE
Cosmos 1766 Rocket 3.7 02:44:55 23° SSW 02:47:33 66° WNW 02:51:55 10° N
Resurs 1-4 Rocket 4.2 02:45:54 10° NE 02:49:35 19° E 02:53:17 10° SE
Cosmos 1674 3.5 02:49:26 21° SW 02:51:38 42° WNW 02:55:20 10° N
Cosmos 1726 2.5 02:49:00 10° NNW 02:52:40 48° W 02:54:37 24° SSW
Lacrosse 5 2.2 02:48:21 10° WSW 02:53:25 67° NNW 02:58:30 10° ENE
Cosmos 1515 Rocket 3.6 02:56:26 10° NNW 03:00:51 66° W 03:03:54 19° S
Cosmos 676 Rocket 4.1 02:59:02 19° SSW 03:02:50 79° ESE 03:08:08 10° NNE
Cosmos 1190 Rocket 4.2 03:00:57 18° SW 03:04:57 68° WNW 03:10:16 10° NNE
USA 234 3.9 03:01:11 11° S 03:06:35 31° SW 03:12:20 10° WNW
Cosmos 2227 Rocket 2.6 03:02:48 17° S 03:07:02 54° ESE 03:12:32 10° NE
PSLV R/B 3.6 03:04:07 10° N 03:08:22 71° WNW 03:11:16 19° SSW
Cosmos 1743 Rocket 3.6 03:05:23 20° SSW 03:08:28 82° WNW 03:12:55 10° N
Cosmos 1300 3.4 03:06:05 10° NNW 03:09:42 40° W 03:11:51 21° SSW
SL-08 R/B 3.5 03:05:57 10° SSE 03:10:55 83° ENE 03:15:54 10° NNW
SL-14 R/B 3.3 03:08:20 20° SSW 03:11:03 79° WNW 03:15:09 10° N
Cosmos 2151 3.1 03:10:55 17° S 03:14:05 71° E 03:18:20 10° NNE
CZ-2D R/B 3.7 03:09:41 10° NE 03:14:06 27° E 03:18:31 10° SSE
NOSS 2-1 (D) 4.0 03:15:40 19° S 03:18:12 44° SE 03:22:31 10° NE
NOSS 2-1 (C) 4.1 03:15:50 19° S 03:18:21 43° SE 03:22:39 10° NE
ATLAS 2AS CENTAUR R/B 3.8 03:12:33 10° NW 03:19:20 31° WSW 03:24:42 14° SSW
NOSS 3-4 (A) 3.8 03:14:05 10° NW 03:20:59 84° SW 03:28:23 10° SE
NOSS 3-4 (C) 3.8 03:14:11 10° NW 03:21:05 84° SW 03:28:29 10° SE
SL-16 R/B 2.8 03:17:02 10° SSE 03:23:10 71° ENE 03:29:22 10° NNW
Cosmos 468 Rocket 4.4 03:21:00 10° NNW 03:26:13 66° ENE 03:31:21 10° SE
Cosmos 1151 Rocket 3.5 03:25:43 10° NNW 03:29:52 45° W 03:33:07 16° SSW
Cosmos 2034 Rocket 4.2 03:24:42 10° N 03:31:06 77° ENE 03:37:29 10° SSE
Cosmos 2219 3.9 03:27:19 11° WSW 03:32:31 48° NW 03:37:58 10° NNE
Cosmos 2208 Rocket 4.0 03:27:34 10° NNW 03:32:42 62° WSW 03:37:51 10° S
NOSS 3-3 (A) 4.1 03:27:18 14° SW 03:32:49 86° SE 03:39:47 10° NE
ERBS 2.2 03:30:09 15° WSW 03:32:49 81° SSE 03:36:14 10° ENE
NOSS 3-3 (C) 4.1 03:27:25 14° SW 03:32:56 85° SE 03:39:52 10° NE
Helios 1A Rocket 3.3 03:30:53 10° N 03:34:58 56° WNW 03:38:15 15° SW
Cosmos 2082 3.8 03:34:12 14° SSW 03:39:00 76° ESE 03:44:39 10° NNE
H-2A R/B 4.1 03:35:58 10° N 03:39:29 26° WNW 03:43:05 10° WSW
NOSS 2-1 (E) 3.7 03:38:05 16° SSW 03:41:10 61° SE 03:45:52 10° NE
Cosmos 614 Rocket 4.0 03:37:16 14° SSW 03:41:44 89° ESE 03:47:01 10° NNE
IRS-1D 4.5 03:37:35 10° NNE 03:42:44 46° E 03:47:49 10° S
Cosmos 1763 Rocket 4.2 03:40:19 10° NNW 03:45:32 57° ENE 03:50:39 10° SE
Cosmos 1140 Rocket 3.6 03:42:09 14° SW 03:46:41 72° WNW 03:51:54 10° NNE
Cosmos 332 Rocket 4.1 03:43:57 10° NNW 03:48:48 73° ENE 03:53:39 10° SSE
SL-8 R/B 3.9 03:45:39 10° WSW 03:50:17 50° S 03:54:55 10° E
Cosmos 2058 3.1 03:46:55 14° SSW 03:50:21 59° WNW 03:54:29 10° N
Cosmos 1814 Rocket 4.3 03:46:19 10° NNW 03:51:42 77° ENE 03:57:04 10° SSE
Cosmos 1455 2.4 03:48:10 10° NNW 03:51:59 56° W 03:55:47 10° S
IRS-P3 4.2 03:47:33 10° NNE 03:52:54 76° WNW 03:57:59 11° SSW
Cosmos 1818 4.2 03:47:32 10° NW 03:52:59 63° NE 03:58:23 10° ESE
Cosmos 1238 4.2 03:50:49 13° SSW 03:53:39 81° W 03:56:41 10° N
Tsikada Rocket 4.5 03:51:30 10° S 03:57:48 63° E 04:04:09 10° NNE
CZ-3A R/B 0.7 03:59:28 10° WNW 04:01:26 58° SSW 04:06:41 10° ESE
Cosmos 1707 Rocket 3.6 03:57:08 10° NNW 04:01:30 69° W 04:05:52 10° S
Cosmos 2333 Rocket 3.9 04:00:07 10° WNW 04:03:25 16° W 04:06:42 10° SW
Cosmos 1850 Rocket 4.0 03:59:56 11° SSW 04:04:54 81° WNW 04:10:07 10° NNE
Cosmos 2219 Rocket 4.1 04:04:21 10° WNW 04:06:32 12° W 04:08:42 10° WSW
Cosmos 1626 2.7 04:05:41 12° SSW 04:09:02 46° WNW 04:12:40 10° N
Cosmos 1603 3.8 04:04:20 10° NNW 04:10:06 90° WSW 04:15:49 10° SSE
USA 267 3.7 04:04:45 10° ENE 04:11:13 65° N 04:17:40 10° W
Cosmos 1741 Rocket 4.1 04:07:03 10° SSW 04:12:19 75° WNW 04:17:41 10° NNE
Cosmos 2297 Rocket 2.3 04:07:20 10° SW 04:12:54 72° WNW 04:18:37 10° NNE
Cosmos 2242 Rocket 3.8 04:08:28 10° N 04:12:59 80° E 04:17:30 10° SSE
BREEZE-M DEB (TANK) 4.2 04:08:03 10° WSW 04:16:30 39° S 04:19:55 10° ESE
Cosmos 1464 Rocket 4.5 04:11:12 10° NNW 04:16:57 42° W 04:22:39 10° SSW
NPP 4.0 04:12:31 10° N 04:17:47 54° WNW 04:23:01 10° SW
NOSS 7 (D) 4.5 04:14:35 10° SW 04:17:54 73° NW 04:21:26 10° NE
CBERS-1 4.4 04:14:31 10° N 04:19:31 54° WNW 04:24:30 10° SW
UNK 4.1 04:16:02 10° S 04:20:28 47° W 04:24:58 10° NNW
Cosmos 1862 Rocket 4.0 04:16:18 10° N 04:20:39 64° ENE 04:24:55 10° SSE
Cosmos 1666 Rocket 3.6 04:17:35 10° S 04:22:01 87° W 04:26:32 10° N
ADEOS 3.7 04:16:58 10° NNE 04:22:14 80° ESE 04:27:28 10° SSW
Lacrosse 4 Rocket 2.0 04:19:24 10° SSW 04:23:25 52° ESE 04:27:36 10° NE
ARIANE 5 R/B 2.6 04:21:10 10° NNE 04:26:19 88° ESE 04:31:22 10° SSW
Cosmos 1869 3.8 04:22:43 10° NNW 04:26:36 45° W 04:30:25 10° SSW
Cosmos 2237 Rocket 3.9 04:24:57 10° WNW 04:27:48 14° W 04:30:38 10° SW
COBE Rocket 3.8 04:23:20 10° N 04:28:01 73° WNW 04:32:38 10° SSW
Cosmos 2285 Rocket 4.2 04:23:24 10° NNW 04:29:45 84° ENE 04:36:04 10° SSE
Resurs 1-4 Rocket 2.2 04:24:45 10° NNE 04:30:06 82° WNW 04:35:26 10° SSW
Cosmos 1356 4.3 04:27:05 10° SW 04:30:22 37° WNW 04:33:42 10° N
SL-16 R/B 3.1 04:25:54 10° NW 04:30:43 29° WSW 04:35:30 10° SSW
Cosmos 1933 Rocket 4.5 04:27:38 10° SSE 04:31:56 49° E 04:36:15 10° NNE
MOZ.5/SAFIR/RUBIN 5/SL-8 3.8 04:28:16 10° S 04:33:03 77° WSW 04:37:52 10° NNW
ATLAS 5 CENTAUR R/B 4.1 04:30:14 10° SSE 04:33:21 17° ESE 04:36:38 10° ENE
ADEOS II 4.2 04:30:15 10° NE 04:34:37 26° E 04:38:57 10° SSE
Cosmos 1634 Rocket 4.1 04:29:46 10° N 04:36:01 89° W 04:42:12 10° S
Lacrosse 5 2.8 04:31:57 10° WNW 04:36:56 53° N 04:41:54 10° E
